Date String (YYYY-MM-DD hh:mm:ss) UTC,Instrument flags,Ambient pressure (hPa),Sample flow (lpm),Bypass flow (lpm),Sample temperature (°C),Ambient temperature (°C),ASC tube jacket temperature (°C),LED temperature (°C),Box temperature (°C),Sample RH (%),Span deviation,Mass concentration (μg/m³),Mass concentration (μg/m³),Mass concentration (μg/m³)
DateTimeUTC,F1_M11,P_M11,Q1_M11,Q2_M11,T1_M11,T2_M11,T3_M11,T4_M11,T5_M11,U1_M11,ZSPAN_M11,X2_M11,X0_M11,X1_M11
2022-11-07 01:00:00,,0826.7,5.00,0.00,22.5,21.2,00.0,31.3,24.4,12.3,0000.0,0003.05,0009.35,0002.09
2022-11-07 01:01:00,,0826.8,5.01,0.00,22.5,21.2,00.0,31.3,24.4,12.3,0000.0,0003.03,0009.38,0002.10
2022-11-07 01:02:00,,0826.8,5.01,0.00,22.5,21.3,00.0,31.3,24.4,12.3,0000.0,0003.02,0008.90,0002.10
2022-11-07 01:03:00,,0826.8,4.99,0.00,22.5,21.3,00.0,31.3,24.4,12.4,0000.0,0003.02,0009.13,0002.11
2022-11-07 01:04:00,,0826.8,5.00,0.00,22.5,21.3,00.0,31.3,24.5,12.4,0000.0,0003.00,0009.35,0002.12
2022-11-07 01:05:00,,0826.8,5.00,0.00,22.6,21.3,00.0,31.3,24.4,12.2,0000.0,0003.01,0008.99,0002.13
2022-11-07 01:06:00,,0827.0,4.99,0.00,22.6,21.4,00.0,31.3,24.5,12.2,0000.0,0003.06,0008.78,0002.13
2022-11-07 01:07:00,,0826.9,5.00,0.00,22.6,21.4,00.0,31.3,24.5,12.3,0000.0,0003.07,0009.03,0002.12
2022-11-07 01:08:00,,0826.9,5.01,0.00,22.6,21.4,00.0,31.3,24.5,12.4,0000.0,0003.04,0009.45,0002.11
2022-11-07 01:09:00,,0826.9,5.00,0.00,22.6,21.4,00.0,31.3,24.5,12.4,0000.0,0002.99,0009.43,0002.09
2022-11-07 01:10:00,,0826.9,5.01,0.00,22.6,21.4,00.0,31.3,24.5,12.4,0000.0,0002.99,0009.59,0002.10
2022-11-07 01:11:00,,0826.9,5.01,0.00,22.6,21.4,00.0,31.3,24.6,12.4,0000.0,0003.00,0009.15,0002.10
2022-11-07 01:12:00,,0826.9,5.00,0.00,22.6,21.5,00.0,31.3,24.6,12.4,0000.0,0003.06,0009.34,0002.11
2022-11-07 01:13:00,,0827.1,5.00,0.00,22.6,21.5,00.0,31.3,24.6,12.4,0000.0,0003.09,0009.82,0002.12
2022-11-07 01:14:00,,0827.0,4.99,0.00,22.6,21.5,00.0,31.4,24.6,12.5,0000.0,0003.13,0009.98,0002.13
2022-11-07 01:15:00,,0827.0,4.99,0.00,22.7,21.5,00.0,31.4,24.6,12.5,0000.0,0003.14,0009.50,0002.12
2022-11-07 01:16:00,,0827.0,5.00,0.00,22.7,21.5,00.0,31.4,24.6,12.5,0000.0,0003.12,0009.61,0002.13
2022-11-07 01:17:00,,0827.0,5.01,0.00,22.7,21.5,00.0,31.4,24.6,12.6,0000.0,0003.09,0010.29,0002.15
2022-11-07 01:18:00,,0827.0,5.00,0.00,22.7,21.5,00.0,31.4,24.6,12.6,0000.0,0003.08,0009.95,0002.15
2022-11-07 01:19:00,,0827.2,4.99,0.00,22.7,21.5,00.0,31.4,24.6,12.6,0000.0,0003.08,0009.35,0002.14
2022-11-07 01:20:00,,0827.0,5.00,0.00,22.7,21.5,00.0,31.4,24.6,12.6,0000.0,0003.10,0009.75,0002.15
2022-11-07 01:21:00,,0827.1,5.00,0.00,22.7,21.6,00.0,31.4,24.6,12.6,0000.0,0003.11,0010.51,0002.14
2022-11-07 01:22:00,,0827.2,5.02,0.00,22.7,21.6,00.0,31.4,24.7,12.5,0000.0,0003.06,0010.70,0002.15
2022-11-07 01:23:00,,0827.2,5.00,0.00,22.7,21.6,00.0,31.4,24.7,12.4,0000.0,0003.07,0011.19,0002.14
2022-11-07 01:24:00,,0827.4,4.99,0.00,22.7,21.5,00.0,31.4,24.7,12.5,0000.0,0003.08,0011.18,0002.15
2022-11-07 01:25:00,,0827.1,5.00,0.00,22.7,21.5,00.0,31.5,24.7,12.6,0000.0,0003.07,0010.61,0002.16
2022-11-07 01:26:00,,0827.1,5.02,0.00,22.7,21.5,00.0,31.4,24.7,12.6,0000.0,0003.02,0010.50,0002.17
2022-11-07 01:27:00,,0827.1,5.00,0.00,22.7,21.6,00.0,31.5,24.7,12.7,0000.0,0003.05,0010.30,0002.18
2022-11-07 01:28:00,,0827.1,5.00,0.00,22.8,21.6,00.0,31.5,24.7,12.6,0000.0,0003.13,0009.99,0002.18
2022-11-07 01:29:00,,0827.2,5.00,0.00,22.8,21.5,00.0,31.5,24.7,12.7,0000.0,0003.15,0010.10,0002.19
2022-11-07 01:30:00,,0827.1,4.99,0.00,22.8,21.6,00.0,31.5,24.7,12.5,0000.0,0003.17,0010.43,0002.21
2022-11-07 01:31:00,,0827.2,5.00,0.00,22.8,21.6,00.0,31.5,24.7,12.5,0000.0,0003.19,0010.34,0002.23
2022-11-07 01:32:00,,0827.2,5.00,0.00,22.8,21.6,00.0,31.5,24.7,12.5,0000.0,0003.23,0009.61,0002.24
2022-11-07 01:33:00,,0827.2,5.00,0.00,22.8,21.6,00.0,31.5,24.7,12.5,0000.0,0003.25,0009.12,0002.24
2022-11-07 01:34:00,,0827.2,5.00,0.00,22.8,21.5,00.0,31.5,24.7,12.5,0000.0,0003.23,0008.75,0002.25
2022-11-07 01:35:00,,0827.2,5.00,0.00,22.8,21.5,00.0,31.5,24.7,12.5,0000.0,0003.21,0008.49,0002.24
2022-11-07 01:36:00,,0827.2,5.00,0.00,22.8,21.5,00.0,31.5,24.7,12.5,0000.0,0003.25,0008.43,0002.22
2022-11-07 01:37:00,,0827.2,5.00,0.00,22.8,21.5,00.0,31.5,24.7,12.6,0000.0,0003.25,0008.46,0002.22
2022-11-07 01:38:00,,0827.2,5.00,0.00,22.8,21.5,00.0,31.5,24.7,12.6,0000.0,0003.25,0008.67,0002.21
2022-11-07 01:39:00,,0827.2,5.00,0.00,22.8,21.5,00.0,31.5,24.7,12.6,0000.0,0003.21,0008.60,0002.19
2022-11-07 01:40:00,,0827.2,5.00,0.00,22.8,21.5,00.0,31.5,24.7,12.6,0000.0,0003.19,0008.18,0002.18
2022-11-07 01:41:00,,0827.2,5.01,0.00,22.8,21.5,00.0,31.5,24.7,12.5,0000.0,0003.18,0008.56,0002.15
2022-11-07 01:42:00,,0827.2,5.00,0.00,22.8,21.5,00.0,31.5,24.7,12.5,0000.0,0003.18,0008.16,0002.12
2022-11-07 01:43:00,,0827.3,5.00,0.00,22.8,21.5,00.0,31.5,24.7,12.4,0000.0,0003.17,0008.16,0002.11
2022-11-07 01:44:00,,0827.3,5.00,0.00,22.8,21.5,00.0,31.5,24.7,12.6,0000.0,0003.16,0008.15,0002.11
2022-11-07 01:45:00,,0827.3,5.01,0.00,22.8,21.5,00.0,31.5,24.7,12.6,0000.0,0003.20,0008.24,0002.12
2022-11-07 01:46:00,,0827.3,4.99,0.00,22.8,21.5,00.0,31.5,24.7,12.7,0000.0,0003.23,0008.32,0002.12
2022-11-07 01:47:00,,0827.4,5.00,0.00,22.8,21.5,00.0,31.5,24.7,12.7,0000.0,0003.23,0008.55,0002.13
2022-11-07 01:48:00,,0827.3,5.01,0.00,22.8,21.5,00.0,31.5,24.7,12.8,0000.0,0003.22,0008.61,0002.14
2022-11-07 01:49:00,,0827.3,5.00,0.00,22.8,21.5,00.0,31.6,24.7,12.7,0000.0,0003.26,0008.52,0002.17
2022-11-07 01:50:00,,0827.3,5.00,0.00,22.8,21.5,00.0,31.5,24.7,12.7,0000.0,0003.28,0008.48,0002.20
2022-11-07 01:51:00,,0827.4,4.99,0.00,22.8,21.5,00.0,31.5,24.7,12.7,0000.0,0003.33,0008.95,0002.24
2022-11-07 01:52:00,,0827.4,5.00,0.00,22.8,21.5,00.0,31.5,24.7,12.7,0000.0,0003.38,0009.16,0002.31
2022-11-07 01:53:00,,0827.4,5.00,0.00,22.8,21.5,00.0,31.6,24.7,12.7,0000.0,0003.39,0008.95,0002.36
2022-11-07 01:54:00,,0827.4,5.00,0.00,22.8,21.5,00.0,31.6,24.7,12.8,0000.0,0003.39,0008.86,0002.39
2022-11-07 01:55:00,,0827.5,5.01,0.00,22.8,21.5,00.0,31.5,24.7,12.7,0000.0,0003.39,0009.45,0002.39
2022-11-07 01:56:00,,0827.5,5.00,0.00,22.8,21.6,00.0,31.5,24.8,12.8,0000.0,0003.36,0009.23,0002.39
2022-11-07 01:57:00,,0827.6,4.98,0.00,22.8,21.6,00.0,31.5,24.7,12.8,0000.0,0003.36,0009.23,0002.38
2022-11-07 01:58:00,,0827.5,5.01,0.00,22.8,21.6,00.0,31.6,24.7,12.7,0000.0,0003.34,0009.31,0002.38
2022-11-07 01:59:00,,0827.5,5.01,0.00,22.8,21.6,00.0,31.5,24.8,12.8,0000.0,0003.32,0010.17,0002.36
